Volver al catálogo

STARLINK-36250

ActivoComunicacionesVLEO
NORAD 68513·PAYLOAD·🇺🇸 United States

Lanzado Mar 30, 2026 desde Cape Canaveral Space Force Station

Loading…

Próximos Pases (próximas 24 horas)

TLE

ActualizadoSource: CelesTrak SupGP

Época: Sep 15, 2026, 03:49 UTC

1 68513C 26068F   26258.15951389  .00046016  00000+0  13593-2 0  2586
2 68513  53.1592 324.4036 0001250  91.1231 180.3192 15.34374432    18

Sigue STARLINK-36250 en tiempo real con AllMySat

Download on the App Store